sat.trackr.live / text

‹ back to catalog

TRANSPORTER-12 OBJECT BR

NORAD 62672 · 2025-009BR

PAYLOAD ACTIVE UNKNOWN

§ Identity

Operator
Country
TBD
Launch date
2025-01-14
Launch site
AFWTR
Launch vehicle
Mass (kg)
RCS (m²)

External: N2YO · Heavens-Above · Gunter

§ Orbital elements

Epoch: 2026-09-22T17:06:56.504736Z

Period
94.51 min
Inclination
97.3890°
Eccentricity
0.0004564
Mean motion
15.23580650 rev/d
Perigee alt
491.9 km
Apogee alt
498.2 km
Semi-major
6,873.2 km
B*
1.1695e-4
RAAN
343.3357°
Arg perigee
12.5500°
Mean anomaly
347.5850°
Rev number
15,123

§ Raw data

TRANSPORTER-12 OBJECT BR1 62672U 25009BR  26265.71315399  .00002727  00000+0  11695-3 0  99902 62672  97.3890 343.3357 0004564  12.5500 347.5850 15.23580650151230

JSON: /api/v1/satellites/62672 · /tle

For live sub-satellite position, see the globe view (requires WebGL).

§ Visibility from observer

Set your observer location to see the next 7 days of passes ≥ 10°. The values pass through the URL so the page stays shareable.

No JS? Fill the form by hand. The geolocation button needs JavaScript.